0 IRIDIUM 7 1 24793U 97020B 25199.88386120 .00000307 00000-0 98974-4 0 9996 2 24793 86.4002 163.6388 0002395 79.7744 280.3723 14.35956162476665 0 IRIDIUM 5 1 24795U 97020D 25199.57894998 .00003995 00000-0 32501-3 0 9990 2 24795 86.3863 69.2518 0109584 26.9114 333.7739 14.94571402490155 0 IRIDIUM 4 1 24796U 97020E 25199.42957749 .00000259 00000-0 80829-4 0 9996 2 24796 86.3999 160.6890 0002412 85.7313 274.4160 14.36857387476957 0 IRIDIUM 914 1 24836U 97030A 25199.41472809 .00000361 00000-0 10636-3 0 9992 2 24836 86.3975 169.1975 0003768 99.2927 260.8698 14.40891272611626 0 IRIDIUM 16 1 24841U 97030F 25199.49101066 .00000275 00000-0 83294-4 0 9995 2 24841 86.4052 192.1295 0002071 27.1814 332.9492 14.38730434471504 0 IRIDIUM 911 1 24842U 97030G 25199.49773987 .00000447 00000-0 11561-3 0 9991 2 24842 86.4478 190.8634 0014179 2.9150 357.2133 14.47664012479615 0 IRIDIUM 17 1 24870U 97034B 25199.49751940 .00000278 00000-0 85851-4 0 9997 2 24870 86.3945 221.5869 0000650 81.7116 278.4155 14.37846083468088 0 IRIDIUM 920 1 24871U 97034C 25199.45988355 .00000321 00000-0 92516-4 0 9991 2 24871 86.3982 200.7697 0010987 350.0505 10.0476 14.41551974471083 0 IRIDIUM 26 1 24903U 97043A 25199.44818708 .00000248 00000-0 76708-4 0 9993 2 24903 86.3949 97.4913 0002164 79.9689 280.1753 14.37163773461237 0 IRIDIUM 22 1 24907U 97043E 25199.47355046 .00000214 00000-0 66871-4 0 9994 2 24907 86.3956 101.0479 0002103 85.0513 275.0923 14.35973806461264 0 IRIDIUM 29 1 24944U 97051A 25199.55500835 .00000318 00000-0 10158-3 0 9992 2 24944 86.3985 130.7467 0002263 90.5546 269.5911 14.36487542457771 0 IRIDIUM 33 1 24946U 97051C 25199.57126257 .00000259 00000-0 84108-4 0 9999 2 24946 86.3901 130.0028 0007408 352.8356 7.2733 14.34908108457241 0 IRIDIUM 28 1 24948U 97051E 25199.50879493 .00000276 00000-0 85654-4 0 9997 2 24948 86.3989 128.2646 0002193 72.3002 287.8435 14.37403037458343 0 IRIDIUM 36 1 24967U 97056C 25199.60645751 .00000320 00000-0 10007-3 0 9991 2 24967 86.4008 159.8088 0002020 84.9077 275.2351 14.37628742456738 0 IRIDIUM 39 1 25042U 97069D 25199.61397194 .00000441 00000-0 11008-3 0 9992 2 25042 86.3925 197.6626 0017048 194.8426 165.2280 14.49245281453511 0 IRIDIUM 38 1 25043U 97069E 25199.47945596 .00000295 00000-0 90855-4 0 9997 2 25043 86.3947 219.9924 0002905 48.0678 312.0767 14.38135405450456 0 IRIDIUM 42 1 25077U 97077A 25199.52409220 .00000276 00000-0 87643-4 0 9998 2 25077 86.3946 226.1809 0002585 73.9269 286.2213 14.36369453445699 0 IRIDIUM 44 1 25078U 97077B 25199.46345488 .00000281 00000-0 82631-4 0 9995 2 25078 86.3960 208.0542 0000717 41.9177 318.2077 14.40258811448201 0 IRIDIUM 45 1 25104U 97082A 25199.79650954 .00014294 00000-0 50353-3 0 9998 2 25104 86.3574 32.5280 0113745 212.1625 147.2649 15.23110592457106 0 IRIDIUM 24 1 25105U 97082B 25199.18811115 .00000266 00000-0 74857-4 0 9990 2 25105 86.3876 67.1478 0010817 346.8198 13.2717 14.42120829447685 0 IRIDIUM 51 1 25262U 98018A 25199.60060823 .00031185 00000-0 65171-3 0 9995 2 25262 86.3810 40.2535 0085335 128.3730 232.5231 15.41417102451860 0 IRIDIUM 57 1 25273U 98019B 25199.32196219 .00000279 00000-0 89310-4 0 9998 2 25273 86.3990 132.2228 0002225 83.1188 277.0262 14.35909300429258 0 IRIDIUM 63 1 25286U 98021B 25199.59397265 .00000263 00000-0 82971-4 0 9997 2 25286 86.3950 68.9531 0002158 91.4645 268.6800 14.36563114428359 0 IRIDIUM 69 1 25319U 98026A 25199.37135619 .00000320 00000-0 93369-4 0 9995 2 25319 86.3951 82.2443 0000642 348.0835 12.0349 14.40990991427558 0 IRIDIUM 71 1 25320U 98026B 25199.37412132 .00000282 00000-0 81350-4 0 9999 2 25320 86.3946 76.9275 0002674 35.7629 324.3749 14.41177300428089 0 IRIDIUM 73 1 25344U 98032C 25199.49291005 .00000393 00000-0 92853-4 0 9992 2 25344 86.4395 33.5143 0001642 98.0197 262.1195 14.51739524435101 0 IRIDIUM 82 1 25467U 98051A 25199.55907607 .00017586 00000-0 48636-3 0 9999 2 25467 86.3653 94.2988 0083239 175.0804 185.1286 15.33366874428761 0 IRIDIUM 106 1 41917U 17003A 25199.53220088 .00000013 00000-0 -24728-5 0 9990 2 41917 86.3957 227.9032 0001706 92.9768 267.1623 14.34217592445381 0 IRIDIUM 103 1 41918U 17003B 25199.51951678 .00000024 00000-0 16566-5 0 9997 2 41918 86.3956 227.8095 0002276 76.3227 283.8222 14.34217706445408 0 IRIDIUM 109 1 41919U 17003C 25199.45609152 .00000006 00000-0 -50570-5 0 9992 2 41919 86.3957 227.8898 0002346 89.1886 270.9578 14.34217423445364 0 IRIDIUM 102 1 41920U 17003D 25199.49414671 .00000045 00000-0 88792-5 0 9997 2 41920 86.3952 227.8047 0002420 93.0657 267.0816 14.34217860445457 0 IRIDIUM 105 1 41921U 17003E 25199.46488194 .00000112 00000-0 32772-4 0 9997 2 41921 86.3988 196.2941 0002342 83.9990 276.1473 14.34218019447303 0 IRIDIUM 104 1 41922U 17003F 25199.50683250 .00000031 00000-0 38847-5 0 9993 2 41922 86.3952 227.8369 0002646 85.1006 275.0492 14.34217719445447 0 IRIDIUM 114 1 41923U 17003G 25199.51317447 .00000043 00000-0 83770-5 0 9995 2 41923 86.3952 227.8186 0002250 84.6591 275.4861 14.34217690445429 0 IRIDIUM 108 1 41924U 17003H 25199.47169476 .00000043 00000-0 81987-5 0 9996 2 41924 86.3983 196.1907 0002178 92.8138 267.3307 14.34217866447275 0 IRIDIUM 112 1 41925U 17003J 25199.50048965 .00000228 00000-0 74186-4 0 9997 2 41925 86.3949 227.6812 0002357 92.0043 268.1422 14.34218199445443 0 IRIDIUM 111 1 41926U 17003K 25199.48779973 .00000164 00000-0 51499-4 0 9996 2 41926 86.3950 227.7497 0002155 89.3292 270.8151 14.34219468445424 0 IRIDIUM 113 1 42803U 17039A 25199.46776894 -.00000026 00000-0 -16358-4 0 9991 2 42803 86.3965 101.6886 0002306 81.8099 278.3358 14.34217325423357 0 IRIDIUM 123 1 42804U 17039B 25199.57901470 .00000003 00000-0 -61630-5 0 9992 2 42804 86.4003 133.1109 0001909 77.4885 282.6525 14.34217719422138 0 IRIDIUM 120 1 42805U 17039C 25199.46142452 .00000099 00000-0 28206-4 0 9993 2 42805 86.3956 101.5172 0001900 87.1054 273.0359 14.34217670423340 0 IRIDIUM 115 1 42806U 17039D 25199.77589519 .00000273 00000-0 75069-4 0 9990 2 42806 86.4493 101.4689 0001729 68.9902 291.1483 14.43282512426178 0 IRIDIUM 118 1 42807U 17039E 25199.33165449 .00000052 00000-0 11500-4 0 9990 2 42807 86.4000 133.2136 0002387 82.2574 277.8892 14.34217332422098 0 IRIDIUM 117 1 42808U 17039F 25199.55998711 .00000040 00000-0 72348-5 0 9996 2 42808 86.3999 133.0791 0002182 78.0696 282.0744 14.34217999422151 0 IRIDIUM 126 1 42809U 17039G 25199.30628085 .00000220 00000-0 71397-4 0 9996 2 42809 86.4002 133.2308 0002371 79.9645 280.1818 14.34219055422097 0 IRIDIUM 124 1 42810U 17039H 25199.36307622 .00000243 00000-0 66361-4 0 9995 2 42810 86.4458 69.9302 0002015 88.1014 272.0417 14.43278026426968 0 IRIDIUM 128 1 42811U 17039J 25199.43655888 .00000043 00000-0 84107-5 0 9991 2 42811 86.4012 164.6502 0001952 89.4416 270.7003 14.34217791422143 0 IRIDIUM 121 1 42812U 17039K 25199.53461289 .00000198 00000-0 63478-4 0 9991 2 42812 86.4001 133.1607 0002209 86.9322 273.2126 14.34219940422000 0 IRIDIUM 133 1 42955U 17061A 25199.60780948 .00000053 00000-0 12008-4 0 9991 2 42955 86.4013 164.6881 0002269 85.2913 274.8542 14.34217893406969 0 IRIDIUM 100 1 42956U 17061B 25199.60146605 .00000041 00000-0 76500-5 0 9993 2 42956 86.4011 164.6173 0002139 82.2109 277.9330 14.34217245406962 0 IRIDIUM 122 1 42957U 17061C 25199.43021664 .00000087 00000-0 23828-4 0 9996 2 42957 86.4012 164.6880 0002256 83.9914 276.1539 14.34218053406949 0 IRIDIUM 129 1 42958U 17061D 25199.38581833 .00000125 00000-0 37419-4 0 9994 2 42958 86.4013 164.7698 0002686 85.7172 274.4331 14.34218626406950 0 IRIDIUM 119 1 42959U 17061E 25199.42387434 .00000050 00000-0 10923-4 0 9999 2 42959 86.4011 164.7481 0002402 80.4263 279.7204 14.34217934406978 0 IRIDIUM 107 1 42960U 17061F 25199.44290100 .00000018 00000-0 -69762-6 0 9998 2 42960 86.4017 164.7597 0001936 74.5701 285.5708 14.34217730406985 0 IRIDIUM 132 1 42961U 17061G 25199.44924350 .00000065 00000-0 16246-4 0 9998 2 42961 86.4014 164.7388 0002204 84.2045 275.9402 14.34217529406989 0 IRIDIUM 136 1 42962U 17061H 25199.41118911 .00000049 00000-0 10289-4 0 9997 2 42962 86.4012 164.7596 0002313 79.9196 280.2261 14.34217830406996 0 IRIDIUM 139 1 42963U 17061J 25199.41753101 .00000055 00000-0 12670-4 0 9997 2 42963 86.4014 164.8135 0002103 81.5731 278.5703 14.34217483407008 0 IRIDIUM 125 1 42964U 17061K 25199.61415218 .00000051 00000-0 11194-4 0 9990 2 42964 86.4017 164.7863 0002443 71.4078 288.7383 14.34217847407043 0 IRIDIUM 135 1 43070U 17083A 25199.23943510 -.00000041 00000-0 -21707-4 0 9994 2 43070 86.3961 101.6423 0002100 89.7986 270.3450 14.34217270396286 0 IRIDIUM 138 1 43071U 17083B 25199.47411208 -.00000039 00000-0 -21098-4 0 9995 2 43071 86.3949 101.2109 0002569 77.9359 282.2125 14.34217206396305 0 IRIDIUM 116 1 43072U 17083C 25199.44239720 -.00000029 00000-0 -17274-4 0 9990 2 43072 86.3957 101.5475 0001821 87.0373 273.1031 14.34217393396337 0 IRIDIUM 130 1 43073U 17083D 25199.48045274 -.00000035 00000-0 -19689-4 0 9993 2 43073 86.3968 101.7745 0001698 81.6062 278.5326 14.34217298396283 0 IRIDIUM 151 1 43074U 17083E 25199.45508268 .00000153 00000-0 47654-4 0 9990 2 43074 86.3963 101.5928 0002022 90.1642 269.9785 14.34217931396301 0 IRIDIUM 134 1 43075U 17083F 25199.42336950 -.00000012 00000-0 -11380-4 0 9998 2 43075 86.3963 101.6093 0001798 81.0860 279.0539 14.34217385396263 0 IRIDIUM 137 1 43076U 17083G 25199.43605457 -.00000011 00000-0 -10971-4 0 9995 2 43076 86.3964 101.6900 0001954 102.5333 257.6082 14.34217561396339 0 IRIDIUM 141 1 43077U 17083H 25199.42971573 .00000202 00000-0 65026-4 0 9991 2 43077 86.3971 101.5432 0002610 85.8679 274.2815 14.34215141396334 0 IRIDIUM 153 1 43078U 17083J 25199.38189144 .00000014 00000-0 -20224-5 0 9996 2 43078 86.3933 70.0215 0002347 76.8720 283.2737 14.34217662397431 0 IRIDIUM 131 1 43079U 17083K 25199.48679662 -.00000005 00000-0 -88017-5 0 9992 2 43079 86.3966 101.6822 0002248 86.1114 274.0339 14.34217406396277 0 IRIDIUM 144 1 43249U 18030A 25199.38823381 -.00000017 00000-0 -13105-4 0 9990 2 43249 86.3932 69.9556 0001980 86.6749 273.4674 14.34217355382295 0 IRIDIUM 149 1 43250U 18030B 25199.39457626 -.00000016 00000-0 -12790-4 0 9996 2 43250 86.3931 69.9237 0001935 87.5256 272.6162 14.34217297382316 0 IRIDIUM 157 1 43251U 18030C 25199.62291047 -.00000017 00000-0 -13087-4 0 9997 2 43251 86.3932 69.8741 0002252 87.9592 272.1862 14.34217309382324 0 IRIDIUM 140 1 43252U 18030D 25199.36286320 -.00000009 00000-0 -10380-4 0 9991 2 43252 86.3931 69.9962 0001891 82.8838 277.2573 14.34217436382343 0 IRIDIUM 145 1 43253U 18030E 25199.62925125 .00000068 00000-0 17257-4 0 9997 2 43253 86.3936 69.8579 0001767 90.6848 269.4550 14.34217522382313 0 IRIDIUM 146 1 43254U 18030F 25199.61022371 -.00000002 00000-0 -79323-5 0 9991 2 43254 86.3932 69.8791 0001670 89.2476 270.8911 14.34217506382320 0 IRIDIUM 148 1 43255U 18030G 25199.57851536 .00000170 00000-0 53488-4 0 9997 2 43255 86.3941 69.9299 0002176 91.4794 268.6651 14.34218603382353 0 IRIDIUM 142 1 43256U 18030H 25199.61656626 -.00000017 00000-0 -13037-4 0 9994 2 43256 86.3930 69.8155 0001604 94.2876 265.8503 14.34217306382320 0 IRIDIUM 150 1 43257U 18030J 25199.58485385 .00000002 00000-0 -63512-5 0 9990 2 43257 86.3932 69.9342 0001797 86.9342 273.2059 14.34217396382363 0 IRIDIUM 143 1 43258U 18030K 25199.35651991 -.00000012 00000-0 -11251-4 0 9998 2 43258 86.3936 70.1094 0001567 90.7388 269.3987 14.34217332382247 0 IRIDIUM 161 1 43478U 18047C 25199.47966675 .00000251 00000-0 68553-4 0 9991 2 43478 86.4473 227.8593 0002604 88.9093 271.2406 14.43280828377004 0 IRIDIUM 152 1 43479U 18047D 25199.46877563 .00000036 00000-0 56441-5 0 9993 2 43479 86.3948 227.7245 0002384 88.3369 271.8100 14.34217920374657 0 IRIDIUM 147 1 43480U 18047E 25199.47511920 .00000007 00000-0 -46557-5 0 9994 2 43480 86.3954 227.7211 0002333 93.9970 266.1493 14.34217514374654 0 IRIDIUM 110 1 43481U 18047F 25199.55122946 .00000181 00000-0 57488-4 0 9996 2 43481 86.3951 227.7723 0002777 87.9557 272.1957 14.34217843374653 0 IRIDIUM 162 1 43482U 18047G 25199.47336575 .00000239 00000-0 65129-4 0 9998 2 43482 86.4472 227.7569 0002578 85.0552 275.0943 14.43279447376998 0 IRIDIUM 160 1 43569U 18061A 25199.49706567 .00000035 00000-0 54882-5 0 9993 2 43569 86.3986 196.2054 0002530 87.2105 272.9381 14.34217704365547 0 IRIDIUM 166 1 43570U 18061B 25199.45266739 -.00000004 00000-0 -85194-5 0 9991 2 43570 86.3990 196.1790 0001946 91.7863 268.3555 14.34217444365566 0 IRIDIUM 158 1 43571U 18061C 25199.49072233 .00000035 00000-0 53847-5 0 9992 2 43571 86.3985 196.1729 0002285 84.2236 275.9221 14.34217753365535 0 IRIDIUM 165 1 43572U 18061D 25199.51610019 .00000128 00000-0 38764-4 0 9999 2 43572 86.3987 196.2021 0002228 92.0494 268.0957 14.34218672365567 0 IRIDIUM 155 1 43573U 18061E 25199.47803767 .00000045 00000-0 90297-5 0 9997 2 43573 86.3982 196.1038 0002116 82.9775 277.1661 14.34217750365521 0 IRIDIUM 154 1 43574U 18061F 25199.45901057 .00000066 00000-0 16522-4 0 9998 2 43574 86.3986 196.2287 0002280 88.7543 271.3914 14.34217835365578 0 IRIDIUM 163 1 43575U 18061G 25199.50975096 .00000022 00000-0 86271-6 0 9991 2 43575 86.3989 196.1336 0002279 85.0857 275.0599 14.34217633365556 0 IRIDIUM 156 1 43576U 18061H 25199.48437980 .00000019 00000-0 -35238-6 0 9998 2 43576 86.3989 196.1512 0001858 84.6411 275.4997 14.34217708365544 0 IRIDIUM 164 1 43577U 18061J 25199.46535291 -.00000034 00000-0 -19224-4 0 9994 2 43577 86.3991 196.1940 0002107 94.9181 265.2256 14.34217223365580 0 IRIDIUM 159 1 43578U 18061K 25199.50340833 .00000004 00000-0 -56362-5 0 9997 2 43578 86.3988 196.1219 0002365 91.7308 268.4159 14.34217509365559 0 IRIDIUM 180 1 43922U 19002A 25199.36336716 -.00000004 00000-0 -84236-5 0 9997 2 43922 86.4002 133.1638 0002210 80.4603 279.6842 14.34218150341143 0 IRIDIUM 176 1 43923U 19002B 25199.57349517 .00000740 00000-0 11338-3 0 9990 2 43923 86.6125 133.0664 0002443 70.6368 289.5113 14.72257679350161 0 IRIDIUM 168 1 43924U 19002C 25199.35702498 .00000030 00000-0 38035-5 0 9995 2 43924 86.4004 133.2344 0002254 83.7694 276.3759 14.34217726341123 0 IRIDIUM 173 1 43925U 19002D 25199.55365394 .00000220 00000-0 71422-4 0 9995 2 43925 86.3999 133.0550 0002295 80.0179 280.1276 14.34217685341138 0 IRIDIUM 169 1 43926U 19002E 25199.45408839 .00000262 00000-0 79199-4 0 9992 2 43926 86.4268 164.6818 0002158 49.0764 311.0621 14.38606340342244 0 IRIDIUM 172 1 43927U 19002F 25199.54730324 -.00000001 00000-0 -74305-5 0 9998 2 43927 86.4000 133.0643 0002431 83.5719 276.5754 14.34217594341147 0 IRIDIUM 175 1 43928U 19002G 25199.16069180 .00000608 00000-0 92544-4 0 9997 2 43928 86.1482 83.9877 0001399 90.1729 269.9648 14.72244999350091 0 IRIDIUM 171 1 43929U 19002H 25199.52827402 .00000019 00000-0 -45266-6 0 9995 2 43929 86.4010 133.3417 0001884 90.6256 269.5156 14.34217802341137 0 IRIDIUM 170 1 43930U 19002J 25199.30779396 .00000727 00000-0 11141-3 0 9998 2 43930 86.6124 133.1817 0002251 79.3123 280.8348 14.72258034350138 0 IRIDIUM 167 1 43931U 19002K 25199.52193145 .00000124 00000-0 37187-4 0 9995 2 43931 86.4000 133.0945 0001819 84.5324 275.6079 14.34218203341136 0 IRIDIUM 181 1 56726U 23068S 25199.49342288 .00000174 00000-0 45704-4 0 9997 2 56726 86.4522 196.1636 0002245 104.0098 256.1353 14.43310308114303 0 IRIDIUM 177 1 56727U 23068T 25199.50584245 .00001022 00000-0 13096-3 0 9992 2 56727 86.1992 127.2697 0002235 89.8830 270.2647 14.80229323117007 0 IRIDIUM 174 1 56728U 23068U 25199.36340813 .00000741 00000-0 11365-3 0 9992 2 56728 86.6132 133.2719 0003038 77.9600 282.1957 14.72251803116909 0 IRIDIUM 178 1 56729U 23068V 25199.42734089 .00000868 00000-0 11084-3 0 9990 2 56729 86.6589 164.8005 0002688 85.2804 274.8724 14.80236170116990 0 IRIDIUM 179 1 56730U 23068W 25199.89518535 .00000998 00000-0 12794-3 0 9992 2 56730 86.6826 172.5699 0002431 87.0950 273.0550 14.80233733117068